Project,Study,Ord_Occ,Event_Num,Cast_ID,Date_Time_UTC,Date_Time_PST,Lat_Dec,Lon_Dec,Sta_ID,Line,Sta,Depth,Pressure,PrQ,Temp1,Temp1Q,Temp2,Temp2Q,TempAve,Salt1,Salt1Q,Salt1_Corr,Salt2,Salt2Q,Salt2_Corr,SaltAve_Corr,Ox1,Ox1Q,Ox1_CruiseCorr,Ox1_StaCorr,Ox2,Ox2Q,Ox2_CruiseCorr,Ox2_StaCorr,OxAve_StaCorr,Ox1uM,Ox1uM_CruiseCorr,Ox1uM_StaCorr,Ox2uM,Ox2uM_CruiseCorr,Ox2uM_StaCorr,OxAveuM_StaCorr,FluorV,FluorQ,EstChl_CruiseCorr,EstChl_StaCorr,ISUSV,ISUSQ,EstNO3_CruiseCorr,EstNO3_StaCorr,SigThetaTS1,SigThetaTS1Q,SigThetaTS2,SigThetaTS2Q,BAT,XMiss,TransQ,pH,pHQ,SPAR,SPARQ,PAR,PARQ,PoT1,PoT2,DynHt,SVA,OxSat1,OxSat2,BTL_Depth,BTL_Temp,SaltB,OxB,OxBuM,Chl-a,Phaeo,NO3,NO2,NH4,PO4,SIL
CalCOFI,2101RL,076,,2101_076u,03-Feb-2021 09:45:55,03-Feb-2021 01:45:55,35.88078,-122.36735,070.0 060.0,070.0,060.0,517.000,521.456,,5.6069,,5.6088,,5.6079,34.2258,,34.2316,34.2239,,34.2259,34.2288,,,,,,,,,,,,,,,,,0.0330,,,, ,, , ,26.9950,,26.9932,,0.7229,83.4660,,,,3.3384E+00,,1.0000E-12,,5.5631,5.5650,0.8381,112.069,,,,,,,,,,,,,,
CalCOFI,2101RL,076,,2101_076u,03-Feb-2021 09:46:01,03-Feb-2021 01:46:01,35.88079,-122.36736,070.0 060.0,070.0,060.0,516.000,520.446,,5.6077,,5.6114,,5.6096,34.2258,,34.2316,34.2235,,34.2255,34.2286,,,,,,,,,,,,,,,,,0.0329,,,, ,, , ,26.9948,,26.9926,,0.7226,83.4729,,,,3.3107E+00,,1.0000E-12,,5.5639,5.5677,0.8384,112.072,,,516,,34.2174,0.399,17.38,,,,,,,
CalCOFI,2101RL,076,,2101_076u,03-Feb-2021 09:46:37,03-Feb-2021 01:46:37,35.88084,-122.36740,070.0 060.0,070.0,060.0,515.000,519.436,,5.6097,,5.6131,,5.6114,34.2258,,34.2316,34.2231,,34.2251,34.2284,,,,,,,,,,,,,,,,,0.0329,,,, ,, , ,26.9946,,26.9920,,0.7225,83.4735,,,,3.4790E+00,,1.0000E-12,,5.5660,5.5694,0.8441,112.085,,,,,,,,,,,,,,
CalCOFI,2101RL,076,,2101_076u,03-Feb-2021 09:47:18,03-Feb-2021 01:47:18,35.88087,-122.36738,070.0 060.0,070.0,060.0,514.000,518.427,,5.6124,,5.6133,,5.6129,34.2260,,34.2318,34.2241,,34.2261,34.2290,,,,,,,,,,,,,,,,,0.0327,,,, ,, , ,26.9944,,26.9928,,0.7224,83.4766,,,,3.6941E+00,,1.0000E-12,,5.5688,5.5697,0.8494,112.090,,,,,,,,,,,,,,
CalCOFI,2101RL,076,,2101_076u,03-Feb-2021 09:47:20,03-Feb-2021 01:47:20,35.88088,-122.36738,070.0 060.0,070.0,060.0,513.000,517.417,,5.6157,,5.6153,,5.6155,34.2262,,34.2320,34.2242,,34.2262,34.2291,,,,,,,,,,,,,,,,,0.0334,,,, ,, , ,26.9941,,26.9927,,0.7224,83.4766,,,,3.6947E+00,,1.0000E-12,,5.5722,5.5718,0.8494,112.107,,,,,,,,,,,,,,
CalCOFI,2101RL,076,,2101_076u,03-Feb-2021 09:47:21,03-Feb-2021 01:47:21,35.88088,-122.36738,070.0 060.0,070.0,060.0,512.000,516.407,,5.6217,,5.6267,,5.6242,34.2263,,34.2321,34.2245,,34.2265,34.2293,,,,,,,,,,,,,,,,,0.0321,,,, ,, , ,26.9935,,26.9915,,0.7224,83.4766,,,,3.6947E+00,,1.0000E-12,,5.5782,5.5832,0.8494,112.164,,,,,,,,,,,,,,
CalCOFI,2101RL,076,,2101_076u,03-Feb-2021 09:47:22,03-Feb-2021 01:47:22,35.88088,-122.36740,070.0 060.0,070.0,060.0,511.000,515.397,,5.6272,,5.6310,,5.6291,34.2260,,34.2318,34.2241,,34.2261,34.2290,,,,,,,,,,,,,,,,,0.0328,,,, ,, , ,26.9926,,26.9906,,0.7224,83.4766,,,,3.6947E+00,,1.0000E-12,,5.5838,5.5876,0.8494,112.241,,,,,,,,,,,,,,
CalCOFI,2101RL,076,,2101_076u,03-Feb-2021 09:47:22,03-Feb-2021 01:47:22,35.88088,-122.36740,070.0 060.0,070.0,060.0,510.000,514.387,,5.6318,,5.6329,,5.6324,34.2256,,34.2314,34.2235,,34.2255,34.2285,,,,,,,,,,,,,,,,,0.0331,,,, ,, , ,26.9917,,26.9899,,0.7224,83.4766,,,,3.6947E+00,,1.0000E-12,,5.5885,5.5896,0.8494,112.320,,,,,,,,,,,,,,
CalCOFI,2101RL,076,,2101_076u,03-Feb-2021 09:47:23,03-Feb-2021 01:47:23,35.88088,-122.36740,070.0 060.0,070.0,060.0,509.000,513.377,,5.6374,,5.6380,,5.6377,34.2225,,34.2283,34.2205,,34.2225,34.2254,,,,,,,,,,,,,,,,,0.0325,,,, ,, , ,26.9886,,26.9869,,0.7224,83.4766,,,,3.6947E+00,,1.0000E-12,,5.5941,5.5948,0.8494,112.604,,,,,,,,,,,,,,
CalCOFI,2101RL,076,,2101_076u,03-Feb-2021 09:47:24,03-Feb-2021 01:47:24,35.88088,-122.36740,070.0 060.0,070.0,060.0,508.000,512.367,,5.6377,,5.6384,,5.6381,34.2178,,34.2236,34.2168,,34.2188,34.2212,,,,,,,,,,,,,,,,,0.0328,,,, ,, , ,26.9848,,26.9839,,0.7227,83.4706,,,,3.6947E+00,,1.0000E-12,,5.5946,5.5953,0.8494,112.946,,,,,,,,,,,,,,
CalCOFI,2101RL,076,,2101_076u,03-Feb-2021 09:47:25,03-Feb-2021 01:47:25,35.88088,-122.36740,070.0 060.0,070.0,060.0,507.000,511.358,,5.6366,,5.6371,,5.6369,34.2143,,34.2201,34.2127,,34.2147,34.2174,,,,,,,,,,,,,,,,,0.0327,,,, ,, , ,26.9822,,26.9808,,0.7225,83.4743,,,,3.6947E+00,,1.0000E-12,,5.5935,5.5941,0.8494,113.179,,,,,,,,,,,,,,
CalCOFI,2101RL,076,,2101_076u,03-Feb-2021 09:47:26,03-Feb-2021 01:47:26,35.88088,-122.36740,070.0 060.0,070.0,060.0,506.000,510.348,,5.6356,,5.6364,,5.6360,34.2125,,34.2183,34.2105,,34.2125,34.2154,,,,,,,,,,,,,,,,,0.0336,,,, ,, , ,26.9809,,26.9792,,0.7224,83.4766,,,,3.6947E+00,,1.0000E-12,,5.5926,5.5934,0.8494,113.286,,,,,,,,,,,,,,
CalCOFI,2101RL,076,,2101_076u,03-Feb-2021 09:47:27,03-Feb-2021 01:47:27,35.88088,-122.36740,070.0 060.0,070.0,060.0,505.000,509.338,,5.6346,,5.6353,,5.6350,34.2114,,34.2172,34.2091,,34.2111,34.2142,,,,,,,,,,,,,,,,,0.0333,,,, ,, , ,26.9801,,26.9782,,0.7226,83.4725,,,,3.6947E+00,,1.0000E-12,,5.5917,5.5925,0.8494,113.351,,,,,,,,,,,,,,
CalCOFI,2101RL,076,,2101_076u,03-Feb-2021 09:47:27,03-Feb-2021 01:47:27,35.88088,-122.36740,070.0 060.0,070.0,060.0,504.000,508.328,,5.6341,,5.6346,,5.6344,34.2107,,34.2165,34.2082,,34.2102,34.2134,,,,,,,,,,,,,,,,,0.0328,,,, ,, , ,26.9796,,26.9776,,0.7224,83.4766,,,,3.6947E+00,,1.0000E-12,,5.5913,5.5918,0.8494,113.381,,,,,,,,,,,,,,
CalCOFI,2101RL,076,,2101_076u,03-Feb-2021 09:47:28,03-Feb-2021 01:47:28,35.88088,-122.36740,070.0 060.0,070.0,060.0,503.000,507.318,,5.6338,,5.6340,,5.6339,34.2106,,34.2164,34.2074,,34.2094,34.2129,,,,,,,,,,,,,,,,,0.0322,,,, ,, , ,26.9795,,26.9770,,0.7224,83.4766,,,,3.6947E+00,,1.0000E-12,,5.5911,5.5913,0.8494,113.372,,,,,,,,,,,,,,
CalCOFI,2101RL,076,,2101_076u,03-Feb-2021 09:47:29,03-Feb-2021 01:47:29,35.88088,-122.36740,070.0 060.0,070.0,060.0,502.000,506.309,,5.6332,,5.6338,,5.6335,34.2091,,34.2149,34.2075,,34.2095,34.2122,,,,,,,,,,,,,,,,,0.0322,,,, ,, , ,26.9784,,26.9771,,0.7224,83.4766,,,,3.6947E+00,,1.0000E-12,,5.5906,5.5912,0.8494,113.463,,,,,,,,,,,,,,
CalCOFI,2101RL,076,,2101_076u,03-Feb-2021 09:47:30,03-Feb-2021 01:47:30,35.88088,-122.36740,070.0 060.0,070.0,060.0,501.000,505.299,,5.6329,,5.6336,,5.6333,34.2093,,34.2151,34.2077,,34.2097,34.2124,,,,,,,,,,,,,,,,,0.0323,,,, ,, , ,26.9786,,26.9773,,0.7224,83.4766,,,,3.3155E+00,,1.0000E-12,,5.5904,5.5911,0.8494,113.433,,,,,,,,,,,,,,
CalCOFI,2101RL,076,,2101_076u,03-Feb-2021 09:47:31,03-Feb-2021 01:47:31,35.88088,-122.36740,070.0 060.0,070.0,060.0,500.000,504.289,,5.6325,,5.6335,,5.6330,34.2094,,34.2152,34.2076,,34.2096,34.2124,,,,,,,,,,,,,,,,,0.0328,,,, ,, , ,26.9787,,26.9772,,0.7224,83.4766,,,,3.6227E+00,,1.0000E-12,,5.5901,5.5911,0.8494,113.408,,,,,,,,,,,,,,
CalCOFI,2101RL,076,,2101_076u,03-Feb-2021 09:47:33,03-Feb-2021 01:47:33,35.88088,-122.36740,070.0 060.0,070.0,060.0,499.000,503.279,,5.6330,,5.6335,,5.6333,34.2113,,34.2171,34.2096,,34.2116,34.2144,,,,,,,,,,,,,,,,,0.0327,,,, ,, , ,26.9802,,26.9787,,0.7224,83.4766,,,,3.6941E+00,,1.0000E-12,,5.5907,5.5911,0.8494,113.260,,,,,,,,,,,,,,
CalCOFI,2101RL,076,,2101_076u,03-Feb-2021 09:47:34,03-Feb-2021 01:47:34,35.88087,-122.36739,070.0 060.0,070.0,060.0,498.000,502.269,,5.6329,,5.6337,,5.6333,34.2100,,34.2158,34.2079,,34.2099,34.2129,,,,,,,,,,,,,,,,,0.0327,,,, ,, , ,26.9792,,26.9774,,0.7224,83.4766,,,,3.6947E+00,,1.0000E-12,,5.5906,5.5915,0.8494,113.342,,,,,,,,,,,,,,
CalCOFI,2101RL,076,,2101_076u,03-Feb-2021 09:47:35,03-Feb-2021 01:47:35,35.88086,-122.36738,070.0 060.0,070.0,060.0,497.000,501.260,,5.6351,,5.6361,,5.6356,34.2076,,34.2134,34.2055,,34.2075,34.2105,,,,,,,,,,,,,,,,,0.0330,,,, ,, , ,26.9770,,26.9752,,0.7224,83.4766,,,,2.7527E+00,,1.0000E-12,,5.5929,5.5939,0.8494,113.536,,,,,,,,,,,,,,
CalCOFI,2101RL,076,,2101_076u,03-Feb-2021 09:47:36,03-Feb-2021 01:47:36,35.88086,-122.36738,070.0 060.0,070.0,060.0,496.000,500.250,,5.6371,,5.6379,,5.6375,34.2070,,34.2128,34.2051,,34.2071,34.2100,,,,,,,,,,,,,,,,,0.0329,,,, ,, , ,26.9762,,26.9746,,0.7224,83.4766,,,,3.2474E+00,,1.0000E-12,,5.5950,5.5959,0.8494,113.598,,,,,,,,,,,,,,
CalCOFI,2101RL,076,,2101_076u,03-Feb-2021 09:47:36,03-Feb-2021 01:47:36,35.88086,-122.36738,070.0 060.0,070.0,060.0,495.000,499.240,,5.6414,,5.6426,,5.6420,34.2063,,34.2121,34.2043,,34.2063,34.2092,,,,,,,,,,,,,,,,,0.0326,,,, ,, , ,26.9751,,26.9734,,0.7224,83.4766,,,,3.7004E+00,,1.0000E-12,,5.5994,5.6006,0.8494,113.690,,,,,,,,,,,,,,
CalCOFI,2101RL,076,,2101_076u,03-Feb-2021 09:47:37,03-Feb-2021 01:47:37,35.88086,-122.36738,070.0 060.0,070.0,060.0,494.000,498.230,,5.6468,,5.6482,,5.6475,34.2053,,34.2111,34.2032,,34.2052,34.2082,,,,,,,,,,,,,,,,,0.0326,,,, ,, , ,26.9737,,26.9718,,0.7224,83.4766,,,,3.6947E+00,,1.0000E-12,,5.6049,5.6063,0.8494,113.820,,,,,,,,,,,,,,
CalCOFI,2101RL,076,,2101_076u,03-Feb-2021 09:47:38,03-Feb-2021 01:47:38,35.88086,-122.36738,070.0 060.0,070.0,060.0,493.000,497.220,,5.6498,,5.6499,,5.6499,34.2044,,34.2102,34.2026,,34.2046,34.2074,,,,,,,,,,,,,,,,,0.0327,,,, ,, , ,26.9726,,26.9711,,0.7224,83.4766,,,,3.6947E+00,,1.0000E-12,,5.6079,5.6081,0.8494,113.915,,,,,,,,,,,,,,
CalCOFI,2101RL,076,,2101_076u,03-Feb-2021 09:47:39,03-Feb-2021 01:47:39,35.88086,-122.36738,070.0 060.0,070.0,060.0,492.000,496.211,,5.6475,,5.6490,,5.6483,34.2047,,34.2105,34.2026,,34.2046,34.2076,,,,,,,,,,,,,,,,,0.0331,,,, ,, , ,26.9731,,26.9712,,0.7224,83.4766,,,,3.6947E+00,,1.0000E-12,,5.6057,5.6072,0.8494,113.848,,,,,,,,,,,,,,
CalCOFI,2101RL,076,,2101_076u,03-Feb-2021 09:47:40,03-Feb-2021 01:47:40,35.88086,-122.36738,070.0 060.0,070.0,060.0,491.000,495.201,,5.6511,,5.6520,,5.6516,34.2036,,34.2094,34.2015,,34.2035,34.2065,,,,,,,,,,,,,,,,,0.0333,,,, ,, , ,26.9717,,26.9700,,0.7243,83.4375,,,,3.6096E+00,,1.0000E-12,,5.6094,5.6103,0.8494,113.968,,,,,,,,,,,,,,
CalCOFI,2101RL,076,,2101_076u,03-Feb-2021 09:47:41,03-Feb-2021 01:47:41,35.88086,-122.36738,070.0 060.0,070.0,060.0,490.000,494.191,,5.6603,,5.6665,,5.6634,34.2004,,34.2062,34.1962,,34.1982,34.2022,,,,,,,,,,,,,,,,,0.0330,,,, ,, , ,26.9681,,26.9641,,0.7224,83.4762,,,,3.6962E+00,,1.0000E-12,,5.6187,5.6248,0.8494,114.310,,,,,,,,,,,,,,
CalCOFI,2101RL,076,,2101_076u,03-Feb-2021 09:47:42,03-Feb-2021 01:47:42,35.88086,-122.36738,070.0 060.0,070.0,060.0,489.000,493.181,,5.6717,,5.6727,,5.6722,34.1962,,34.2020,34.1942,,34.1962,34.1991,,,,,,,,,,,,,,,,,0.0325,,,, ,, , ,26.9634,,26.9617,,0.7224,83.4766,,,,3.6947E+00,,1.0000E-12,,5.6301,5.6311,0.8494,114.754,,,,,,,,,,,,,,
CalCOFI,2101RL,076,,2101_076u,03-Feb-2021 09:47:43,03-Feb-2021 01:47:43,35.88086,-122.36738,070.0 060.0,070.0,060.0,488.000,492.172,,5.6770,,5.6786,,5.6778,34.1944,,34.2002,34.1924,,34.1944,34.1973,,,,,,,,,,,,,,,,,0.0327,,,, ,, , ,26.9613,,26.9595,,0.7227,83.4712,,,,3.4835E+00,,1.0000E-12,,5.6355,5.6371,0.8494,114.938,,,,,,,,,,,,,,
CalCOFI,2101RL,076,,2101_076u,03-Feb-2021 09:47:44,03-Feb-2021 01:47:44,35.88087,-122.36738,070.0 060.0,070.0,060.0,487.000,491.162,,5.6791,,5.6790,,5.6791,34.1940,,34.1998,34.1921,,34.1941,34.1970,,,,,,,,,,,,,,,,,0.0331,,,, ,, , ,26.9607,,26.9592,,0.7224,83.4766,,,,3.3768E+00,,1.0000E-12,,5.6377,5.6375,0.8494,114.988,,,,,,,,,,,,,,
CalCOFI,2101RL,076,,2101_076u,03-Feb-2021 09:47:45,03-Feb-2021 01:47:45,35.88088,-122.36738,070.0 060.0,070.0,060.0,486.000,490.152,,5.6816,,5.6839,,5.6828,34.1930,,34.1988,34.1904,,34.1924,34.1956,,,,,,,,,,,,,,,,,0.0331,,,, ,, , ,26.9596,,26.9573,,0.7224,83.4766,,,,3.5085E+00,,1.0000E-12,,5.6402,5.6425,0.8494,115.077,,,,,,,,,,,,,,
CalCOFI,2101RL,076,,2101_076u,03-Feb-2021 09:47:47,03-Feb-2021 01:47:47,35.88088,-122.36738,070.0 060.0,070.0,060.0,485.000,489.142,,5.6864,,5.6874,,5.6869,34.1911,,34.1969,34.1889,,34.1909,34.1939,,,,,,,,,,,,,,,,,0.0330,,,, ,, , ,26.9575,,26.9557,,0.7224,83.4766,,,,2.9538E+00,,1.0000E-12,,5.6452,5.6461,0.8494,115.266,,,,,,,,,,,,,,
CalCOFI,2101RL,076,,2101_076u,03-Feb-2021 09:47:48,03-Feb-2021 01:47:48,35.88088,-122.36740,070.0 060.0,070.0,060.0,484.000,488.133,,5.6867,,5.6886,,5.6877,34.1909,,34.1967,34.1885,,34.1905,34.1936,,,,,,,,,,,,,,,,,0.0327,,,, ,, , ,26.9573,,26.9552,,0.7224,83.4766,,,,3.7087E+00,,1.0000E-12,,5.6455,5.6474,0.8494,115.277,,,,,,,,,,,,,,
CalCOFI,2101RL,076,,2101_076u,03-Feb-2021 09:47:49,03-Feb-2021 01:47:49,35.88088,-122.36740,070.0 060.0,070.0,060.0,483.000,487.123,,5.6880,,5.6892,,5.6886,34.1901,,34.1959,34.1880,,34.1900,34.1930,,,,,,,,,,,,,,,,,0.0328,,,, ,, , ,26.9565,,26.9547,,0.7224,83.4766,,,,3.6947E+00,,1.0000E-12,,5.6469,5.6481,0.8494,115.340,,,,,,,,,,,,,,
CalCOFI,2101RL,076,,2101_076u,03-Feb-2021 09:47:50,03-Feb-2021 01:47:50,35.88088,-122.36740,070.0 060.0,070.0,060.0,482.000,486.113,,5.6906,,5.6923,,5.6915,34.1886,,34.1944,34.1864,,34.1884,34.1914,,,,,,,,,,,,,,,,,0.0333,,,, ,, , ,26.9550,,26.9531,,0.7224,83.4766,,,,3.1851E+00,,1.0000E-12,,5.6496,5.6513,0.8494,115.472,,,,,,,,,,,,,,
CalCOFI,2101RL,076,,2101_076u,03-Feb-2021 09:47:50,03-Feb-2021 01:47:50,35.88088,-122.36740,070.0 060.0,070.0,060.0,481.000,485.104,,5.6977,,5.7021,,5.6999,34.1861,,34.1919,34.1830,,34.1850,34.1885,,,,,,,,,,,,,,,,,0.0325,,,, ,, , ,26.9521,,26.9491,,0.7224,83.4766,,,,3.6907E+00,,1.0000E-12,,5.6568,5.6612,0.8494,115.736,,,,,,,,,,,,,,
CalCOFI,2101RL,076,,2101_076u,03-Feb-2021 09:47:51,03-Feb-2021 01:47:51,35.88088,-122.36738,070.0 060.0,070.0,060.0,480.000,484.094,,5.7057,,5.7080,,5.7069,34.1840,,34.1898,34.1818,,34.1838,34.1868,,,,,,,,,,,,,,,,,0.0332,,,, ,, , ,26.9495,,26.9475,,0.7224,83.4766,,,,3.6947E+00,,1.0000E-12,,5.6648,5.6671,0.8494,115.978,,,,,,,,,,,,,,
CalCOFI,2101RL,076,,2101_076u,03-Feb-2021 09:47:52,03-Feb-2021 01:47:52,35.88088,-122.36738,070.0 060.0,070.0,060.0,479.000,483.084,,5.7112,,5.7156,,5.7134,34.1828,,34.1886,34.1801,,34.1821,34.1854,,,,,,,,,,,,,,,,,0.0326,,,, ,, , ,26.9479,,26.9452,,0.7224,83.4766,,,,3.6947E+00,,1.0000E-12,,5.6703,5.6748,0.8494,116.122,,,,,,,,,,,,,,
CalCOFI,2101RL,076,,2101_076u,03-Feb-2021 09:47:53,03-Feb-2021 01:47:53,35.88088,-122.36738,070.0 060.0,070.0,060.0,478.000,482.074,,5.7215,,5.7235,,5.7225,34.1814,,34.1872,34.1793,,34.1813,34.1843,,,,,,,,,,,,,,,,,0.0326,,,, ,, , ,26.9455,,26.9436,,0.7224,83.4766,,,,3.6947E+00,,1.0000E-12,,5.6808,5.6827,0.8494,116.345,,,,,,,,,,,,,,
CalCOFI,2101RL,076,,2101_076u,03-Feb-2021 09:47:54,03-Feb-2021 01:47:54,35.88088,-122.36738,070.0 060.0,070.0,060.0,477.000,481.065,,5.7259,,5.7293,,5.7276,34.1811,,34.1869,34.1788,,34.1808,34.1839,,,,,,,,,,,,,,,,,0.0330,,,, ,, , ,26.9447,,26.9425,,0.7224,83.4766,,,,3.3783E+00,,1.0000E-12,,5.6852,5.6886,0.8494,116.411,,,,,,,,,,,,,,
CalCOFI,2101RL,076,,2101_076u,03-Feb-2021 09:47:55,03-Feb-2021 01:47:55,35.88090,-122.36740,070.0 060.0,070.0,060.0,476.000,480.055,,5.7345,,5.7354,,5.7350,34.1801,,34.1859,34.1781,,34.1801,34.1830,,,,,,,,,,,,,,,,,0.0335,,,, ,, , ,26.9428,,26.9412,,0.7224,83.4766,,,,3.4094E+00,,1.0000E-12,,5.6939,5.6948,0.8494,116.587,,,,,,,,,,,,,,
CalCOFI,2101RL,076,,2101_076u,03-Feb-2021 09:47:56,03-Feb-2021 01:47:56,35.88090,-122.36740,070.0 060.0,070.0,060.0,475.000,479.045,,5.7363,,5.7339,,5.7351,34.1804,,34.1862,34.1787,,34.1807,34.1835,,,,,,,,,,,,,,,,,0.0333,,,, ,, , ,26.9429,,26.9418,,0.7224,83.4766,,,,3.4827E+00,,1.0000E-12,,5.6958,5.6933,0.8494,116.571,,,,,,,,,,,,,,
CalCOFI,2101RL,076,,2101_076u,03-Feb-2021 09:47:57,03-Feb-2021 01:47:57,35.88091,-122.36741,070.0 060.0,070.0,060.0,474.000,478.036,,5.7474,,5.7451,,5.7463,34.1797,,34.1855,34.1773,,34.1793,34.1824,,,,,,,,,,,,,,,,,0.0327,,,, ,, , ,26.9410,,26.9394,,0.7224,83.4766,,,,3.4374E+00,,1.0000E-12,,5.7069,5.7046,0.8494,116.751,,,,,,,,,,,,,,
CalCOFI,2101RL,076,,2101_076u,03-Feb-2021 09:47:59,03-Feb-2021 01:47:59,35.88092,-122.36742,070.0 060.0,070.0,060.0,473.000,477.026,,5.7559,,5.7613,,5.7586,34.1791,,34.1849,34.1770,,34.1790,34.1820,,,,,,,,,,,,,,,,,0.0330,,,, ,, , ,26.9394,,26.9371,,0.7224,83.4766,,,,3.7005E+00,,1.0000E-12,,5.7154,5.7208,0.8494,116.894,,,,,,,,,,,,,,
CalCOFI,2101RL,076,,2101_076u,03-Feb-2021 09:48:00,03-Feb-2021 01:48:00,35.88092,-122.36742,070.0 060.0,070.0,060.0,472.000,476.016,,5.7629,,5.7709,,5.7669,34.1786,,34.1844,34.1766,,34.1786,34.1815,,,,,,,,,,,,,,,,,0.0330,,,, ,, , ,26.9382,,26.9356,,0.7224,83.4766,,,,3.6947E+00,,1.0000E-12,,5.7225,5.7305,0.8494,117.003,,,,,,,,,,,,,,
CalCOFI,2101RL,076,,2101_076u,03-Feb-2021 09:48:01,03-Feb-2021 01:48:01,35.88092,-122.36742,070.0 060.0,070.0,060.0,471.000,475.007,,5.7718,,5.7767,,5.7743,34.1785,,34.1843,34.1765,,34.1785,34.1814,,,,,,,,,,,,,,,,,0.0326,,,, ,, , ,26.9369,,26.9348,,0.7224,83.4766,,,,3.6947E+00,,1.0000E-12,,5.7314,5.7364,0.8494,117.118,,,,,,,,,,,,,,
CalCOFI,2101RL,076,,2101_076u,03-Feb-2021 09:48:01,03-Feb-2021 01:48:01,35.88092,-122.36742,070.0 060.0,070.0,060.0,470.000,473.997,,5.7800,,5.7813,,5.7807,34.1783,,34.1841,34.1766,,34.1786,34.1814,,,,,,,,,,,,,,,,,0.0325,,,, ,, , ,26.9358,,26.9343,,0.7224,83.4766,,,,3.0535E+00,,1.0000E-12,,5.7397,5.7410,0.8494,117.222,,,,,,,,,,,,,,
CalCOFI,2101RL,076,,2101_076u,03-Feb-2021 09:48:02,03-Feb-2021 01:48:02,35.88092,-122.36742,070.0 060.0,070.0,060.0,469.000,472.987,,5.7866,,5.7862,,5.7864,34.1786,,34.1844,34.1766,,34.1786,34.1815,,,,,,,,,,,,,,,,,0.0330,,,, ,, , ,26.9352,,26.9337,,0.7224,83.4766,,,,3.6906E+00,,1.0000E-12,,5.7464,5.7460,0.8494,117.272,,,,,,,,,,,,,,
CalCOFI,2101RL,076,,2101_076u,03-Feb-2021 09:48:03,03-Feb-2021 01:48:03,35.88092,-122.36742,070.0 060.0,070.0,060.0,468.000,471.978,,5.7915,,5.7928,,5.7922,34.1789,,34.1847,34.1770,,34.1790,34.1819,,,,,,,,,,,,,,,,,0.0330,,,, ,, , ,26.9348,,26.9331,,0.7224,83.4766,,,,3.6947E+00,,1.0000E-12,,5.7513,5.7526,0.8494,117.299,,,,,,,,,,,,,,
CalCOFI,2101RL,076,,2101_076u,03-Feb-2021 09:48:04,03-Feb-2021 01:48:04,35.88092,-122.36742,070.0 060.0,070.0,060.0,467.000,470.968,,5.7970,,5.7981,,5.7976,34.1788,,34.1846,34.1771,,34.1791,34.1819,,,,,,,,,,,,,,,,,0.0333,,,, ,, , ,26.9341,,26.9326,,0.7224,83.4766,,,,3.6151E+00,,1.0000E-12,,5.7569,5.7580,0.8494,117.362,,,,,,,,,,,,,,
CalCOFI,2101RL,076,,2101_076u,03-Feb-2021 09:48:05,03-Feb-2021 01:48:05,35.88092,-122.36742,070.0 060.0,070.0,060.0,466.000,469.958,,5.7978,,5.8005,,5.7992,34.1783,,34.1841,34.1755,,34.1775,34.1808,,,,,,,,,,,,,,,,,0.0318,,,, ,, , ,26.9336,,26.9310,,0.7224,83.4766,,,,3.0971E+00,,1.0000E-12,,5.7578,5.7605,0.8494,117.397,,,,,,,,,,,,,,
CalCOFI,2101RL,076,,2101_076u,03-Feb-2021 09:48:06,03-Feb-2021 01:48:06,35.88092,-122.36742,070.0 060.0,070.0,060.0,465.000,468.949,,5.8038,,5.8033,,5.8036,34.1752,,34.1810,34.1738,,34.1758,34.1784,,,,,,,,,,,,,,,,,0.0333,,,, ,, , ,26.9303,,26.9293,,0.7224,83.4766,,,,3.6296E+00,,1.0000E-12,,5.7639,5.7634,0.8494,117.696,,,,,,,,,,,,,,
CalCOFI,2101RL,076,,2101_076u,03-Feb-2021 09:48:07,03-Feb-2021 01:48:07,35.88092,-122.36742,070.0 060.0,070.0,060.0,464.000,467.939,,5.8088,,5.8102,,5.8095,34.1728,,34.1786,34.1707,,34.1727,34.1757,,,,,,,,,,,,,,,,,0.0324,,,, ,, , ,26.9278,,26.9260,,0.7224,83.4766,,,,3.6946E+00,,1.0000E-12,,5.7690,5.7703,0.8494,117.924,,,,,,,,,,,,,,
CalCOFI,2101RL,076,,2101_076u,03-Feb-2021 09:48:08,03-Feb-2021 01:48:08,35.88092,-122.36744,070.0 060.0,070.0,060.0,463.000,466.930,,5.8093,,5.8109,,5.8101,34.1727,,34.1785,34.1705,,34.1725,34.1755,,,,,,,,,,,,,,,,,0.0337,,,, ,, , ,26.9277,,26.9257,,0.7224,83.4766,,,,3.6947E+00,,1.0000E-12,,5.7695,5.7711,0.8494,117.924,,,,,,,,,,,,,,
CalCOFI,2101RL,076,,2101_076u,03-Feb-2021 09:48:09,03-Feb-2021 01:48:09,35.88092,-122.36744,070.0 060.0,070.0,060.0,462.000,465.920,,5.8118,,5.8137,,5.8128,34.1718,,34.1776,34.1695,,34.1715,34.1746,,,,,,,,,,,,,,,,,0.0333,,,, ,, , ,26.9266,,26.9246,,0.7224,83.4766,,,,3.2861E+00,,1.0000E-12,,5.7721,5.7740,0.8494,118.013,,,,,,,,,,,,,,
CalCOFI,2101RL,076,,2101_076u,03-Feb-2021 09:48:10,03-Feb-2021 01:48:10,35.88092,-122.36744,070.0 060.0,070.0,060.0,461.000,464.910,,5.8122,,5.8144,,5.8133,34.1716,,34.1774,34.1692,,34.1712,34.1743,,,,,,,,,,,,,,,,,0.0327,,,, ,, , ,26.9264,,26.9242,,0.7219,83.4875,,,,2.5899E+00,,1.0000E-12,,5.7726,5.7748,0.8494,118.017,,,,,,,,,,,,,,
CalCOFI,2101RL,076,,2101_076u,03-Feb-2021 09:48:11,03-Feb-2021 01:48:11,35.88092,-122.36744,070.0 060.0,070.0,060.0,460.000,463.901,,5.8132,,5.8148,,5.8140,34.1705,,34.1763,34.1685,,34.1705,34.1734,,,,,,,,,,,,,,,,,0.0333,,,, ,, , ,26.9255,,26.9236,,0.7224,83.4768,,,,3.6737E+00,,1.0000E-12,,5.7737,5.7753,0.8494,118.097,,,,,,,,,,,,,,
CalCOFI,2101RL,076,,2101_076u,03-Feb-2021 09:48:12,03-Feb-2021 01:48:12,35.88092,-122.36744,070.0 060.0,070.0,060.0,459.000,462.891,,5.8141,,5.8153,,5.8147,34.1697,,34.1755,34.1677,,34.1697,34.1726,,,,,,,,,,,,,,,,,0.0327,,,, ,, , ,26.9247,,26.9229,,0.7224,83.4766,,,,3.5545E+00,,1.0000E-12,,5.7747,5.7759,0.8494,118.154,,,,,,,,,,,,,,
CalCOFI,2101RL,076,,2101_076u,03-Feb-2021 09:48:13,03-Feb-2021 01:48:13,35.88092,-122.36744,070.0 060.0,070.0,060.0,458.000,461.882,,5.8162,,5.8173,,5.8168,34.1683,,34.1741,34.1661,,34.1681,34.1711,,,,,,,,,,,,,,,,,0.0333,,,, ,, , ,26.9233,,26.9214,,0.7265,83.3908,,,,3.6937E+00,,1.0000E-12,,5.7769,5.7780,0.8494,118.280,,,,,,,,,,,,,,
CalCOFI,2101RL,076,,2101_076u,03-Feb-2021 09:48:14,03-Feb-2021 01:48:14,35.88092,-122.36744,070.0 060.0,070.0,060.0,457.000,460.872,,5.8195,,5.8206,,5.8201,34.1662,,34.1720,34.1641,,34.1661,34.1691,,,,,,,,,,,,,,,,,0.0330,,,, ,, , ,26.9212,,26.9195,,0.7222,83.4803,,,,3.6947E+00,,1.0000E-12,,5.7803,5.7813,0.8494,118.463,,,,,,,,,,,,,,
CalCOFI,2101RL,076,,2101_076u,03-Feb-2021 09:48:15,03-Feb-2021 01:48:15,35.88092,-122.36744,070.0 060.0,070.0,060.0,456.000,459.862,,5.8201,,5.8209,,5.8205,34.1642,,34.1700,34.1625,,34.1645,34.1673,,,,,,,,,,,,,,,,,0.0326,,,, ,, , ,26.9196,,26.9181,,0.7222,83.4809,,,,3.6947E+00,,1.0000E-12,,5.7810,5.7817,0.8494,118.604,,,,,,,,,,,,,,
CalCOFI,2101RL,076,,2101_076u,03-Feb-2021 09:48:16,03-Feb-2021 01:48:16,35.88092,-122.36744,070.0 060.0,070.0,060.0,455.000,458.853,,5.8177,,5.8180,,5.8179,34.1621,,34.1679,34.1601,,34.1621,34.1650,,,,,,,,,,,,,,,,,0.0323,,,, ,, , ,26.9182,,26.9166,,0.7224,83.4766,,,,3.6947E+00,,1.0000E-12,,5.7786,5.7789,0.8494,118.719,,,,,,,,,,,,,,
CalCOFI,2101RL,076,,2101_076u,03-Feb-2021 09:48:17,03-Feb-2021 01:48:17,35.88092,-122.36744,070.0 060.0,070.0,060.0,454.000,457.843,,5.8227,,5.8240,,5.8234,34.1608,,34.1666,34.1582,,34.1602,34.1634,,,,,,,,,,,,,,,,,0.0331,,,, ,, , ,26.9165,,26.9143,,0.7224,83.4766,,,,3.6947E+00,,1.0000E-12,,5.7837,5.7850,0.8494,118.869,,,,,,,,,,,,,,
CalCOFI,2101RL,076,,2101_076u,03-Feb-2021 09:48:17,03-Feb-2021 01:48:17,35.88093,-122.36744,070.0 060.0,070.0,060.0,453.000,456.834,,5.8313,,5.8333,,5.8323,34.1591,,34.1649,34.1570,,34.1590,34.1620,,,,,,,,,,,,,,,,,0.0332,,,, ,, , ,26.9141,,26.9122,,0.7224,83.4766,,,,3.4329E+00,,1.0000E-12,,5.7924,5.7944,0.8494,119.093,,,,,,,,,,,,,,
CalCOFI,2101RL,076,,2101_076u,03-Feb-2021 09:48:18,03-Feb-2021 01:48:18,35.88094,-122.36744,070.0 060.0,070.0,060.0,452.000,455.824,,5.8452,,5.8437,,5.8445,34.1574,,34.1632,34.1561,,34.1581,34.1607,,,,,,,,,,,,,,,,,0.0327,,,, ,, , ,26.9110,,26.9102,,0.7224,83.4766,,,,3.6939E+00,,1.0000E-12,,5.8063,5.8048,0.8494,119.385,,,,,,,,,,,,,,
CalCOFI,2101RL,076,,2101_076u,03-Feb-2021 09:48:18,03-Feb-2021 01:48:18,35.88094,-122.36744,070.0 060.0,070.0,060.0,451.000,454.814,,5.8492,,5.8516,,5.8504,34.1571,,34.1629,34.1548,,34.1568,34.1599,,,,,,,,,,,,,,,,,0.0328,,,, ,, , ,26.9103,,26.9082,,0.7224,83.4766,,,,3.6947E+00,,1.0000E-12,,5.8104,5.8128,0.8494,119.442,,,,,,,,,,,,,,
CalCOFI,2101RL,076,,2101_076u,03-Feb-2021 09:48:20,03-Feb-2021 01:48:20,35.88094,-122.36744,070.0 060.0,070.0,060.0,450.000,453.805,,5.8505,,5.8502,,5.8504,34.1570,,34.1628,34.1552,,34.1572,34.1600,,,,,,,,,,,,,,,,,0.0328,,,, ,, , ,26.9101,,26.9086,,0.7224,83.4766,,,,3.5108E+00,,1.0000E-12,,5.8117,5.8115,0.8494,119.450,,,,,,,,,,,,,,
CalCOFI,2101RL,076,,2101_076u,03-Feb-2021 09:48:22,03-Feb-2021 01:48:22,35.88094,-122.36746,070.0 060.0,070.0,060.0,449.000,452.795,,5.8469,,5.8476,,5.8473,34.1575,,34.1633,34.1554,,34.1574,34.1604,,,,,,,,,,,,,,,,,0.0332,,,, ,, , ,26.9109,,26.9092,,0.7224,83.4766,,,,3.7383E+00,,1.0000E-12,,5.8083,5.8090,0.8494,119.356,,,,,,,,,,,,,,